Location: Bacharowice
(49.9333°N, 19.5833°E)
Time: 12:59:35
(UTC+00:00)

NOSS 3-3 (C) - Pass Details

Date: 11 May 2021
Orbit: 806 x 1406 km, 63.4° (Epoch: 14 June)

Event Time Altitude Azimuth Distance (km) Brightness Sun altitude
Rises 19:32:22 0° 211° (SSW) 3,382 6.7 -10.6°
Reaches altitude 10° 19:34:42 10° 209° (SSW) 2,496 6.0 -10.9°
Maximum altitude 19:40:26 70° 127° (SE) 994 3.9 -11.5°
Drops below altitude 10° 19:47:01 10° 45° (NE) 2,861 6.5 -12.2°
Sets 19:49:51 0° 44° (NE) 3,913 7.2 -12.5°
